This demonstration page uses our WeatherBlox Daily Observations layout. Learn more.

Left ArrowRight Arrow

38.83388, -104.82136

Hourly Observations for August 5, 2022

Temp ( °F °C ) Dew Point ( °F °C ) Humidity (%) Winds ( mph kmh ) Pressure ( in mb ) Visibility ( mi km ) Precip ( " mm )
12:54 am 00:54 Mostly Cloudy 68 20 58 14.4 70 70 N 6 9 29.93 1014 10 16 0.00 0.00
1:54 am 01:54 Mostly Cloudy 66 18.9 59 15 78 78 NNE 8 13 29.91 1013 10 16 0.00 0.00
2:54 am 02:54 Mostly Cloudy 65 18.3 59 15 81 81 N 6 9 29.91 1013 10 16 0.00 0.00
3:54 am 03:54 Mostly Cloudy 64 17.8 58 14.4 81 81 N 5 7 29.88 1012 10 16 0.00 0.00
4:54 am 04:54 Mostly Cloudy 63 17.2 58 14.4 84 84 NNE 8 13 29.87 1012 10 16 0.00 0.00
5:54 am 05:54 Partly Cloudy 64 17.8 57 13.9 78 78 NW 5 7 29.88 1012 10 16 0.00 0.00
6:54 am 06:54 Mostly Cloudy 65 18.3 57 13.9 76 76 NNW 5 7 29.92 1013 10 16 0.00 0.00
7:54 am 07:54 Mostly Cloudy 74 23.3 58 14.4 57 57 E 5 7 29.90 1013 10 16 0.00 0.00
8:54 am 08:54 Partly Cloudy 76 24.4 59 15 56 56 Calm 29.89 1012 10 16 0.00 0.00
9:54 am 09:54 Partly Cloudy 77 25 59 15 54 54 ESE 3 6 29.89 1012 10 16 0.00 0.00
10:54 am 10:54 Partly Cloudy 80 26.7 60 15.6 51 51 S 5 7 29.88 1012 10 16 0.00 0.00
11:54 am 11:54 Partly Cloudy 84 28.9 61 16.1 46 46 Calm 29.86 1011 10 16 0.00 0.00
12:54 pm 12:54 Partly Cloudy 86 30 58 14.4 39 39 SE 5 7 29.84 1011 10 16 0.00 0.00
1:54 pm 13:54 Mostly Cloudy 88 31.1 51 10.6 28 28 SE 5 7 29.82 1010 10 16 0.00 0.00
2:54 pm 14:54 Mostly Cloudy 90 32.2 52 11.1 27 27 VRB 3 6 29.80 1009 10 16 0.00 0.00
3:54 pm 15:54 Mostly Cloudy 88 31.1 53 11.7 30 30 NNW 3 6 29.80 1009 10 16 0.00 0.00
4:54 pm 16:54 Mostly Cloudy 86 30 49 9.4 28 28 NW 9 15 29.81 1009 10 16 0.00 0.00
5:54 pm 17:54 Mostly Cloudy 85 29.4 49 9.4 29 29 W 10 17 29.80 1009 10 16 0.00 0.00
6:54 pm 18:54 Mostly Cloudy 82 27.8 51 10.6 34 34 NNW 13 20 29.81 1010 10 16 0.00 0.00
7:54 pm 19:54 Mostly Cloudy 78 25.6 51 10.6 39 39 N 9 15 29.80 1009 10 16 0.00 0.00
8:54 pm 20:54 Mostly Cloudy 75 23.9 53 11.7 46 46 N 7 11 29.82 1010 10 16 0.00 0.00
9:54 pm 21:54 Mostly Cloudy 78 25.6 50 10 37 37 NNW 12 19 29.82 1010 10 16 0.00 0.00
10:54 pm 22:54 Mostly Cloudy 77 25 51 10.6 40 40 WNW 9 15 29.81 1010 10 16 0.00 0.00
11:54 pm 23:54 Mostly Cloudy 76 24.4 50 10 40 40 NNW 14 22 29.81 1009 10 16 0.00 0.00

Powered by AerisWeather